Regional Weather Roundup
Issued by NWS

Home | Current Version | Previous Version | Graphics & Text | Print | Product List | Glossary On
Versions: 1 2 3 4 5 6 7 8 9 10 11 12 13 14 15 16 17 18 19 20 21 22 23 24 25 26 27 28 29 30 31 32 33 34 35 36 37 38 39 40 41 42 43 44 45 46 47 48 49 50
000
ASUS43 KBIS 221731
RWRND
NORTH DAKOTA REGIONAL WEATHER ROUNDUP
NATIONAL WEATHER SERVICE EASTERN NORTH DAKOTA/GRAND FORKS ND
1200 PM CDT SUN APR 22 2018

  NOTE: "FAIR" INDICATES FEW OR NO CLOUDS BELOW 12,000 FEET WITH NO
  SIGNIFICANT WEATHER AND/OR OBSTRUCTIONS TO VISIBILITY.

NDZ001>003-009>011-017-221800-
...NORTHWEST NORTH DAKOTA...

CITY           SKY/WX    TMP DP  RH WIND       PRES   REMARKS
WILLISTON      PTSUNNY   60  31  33 N8        30.14S
MINOT          FAIR      60  31  33 NW9       30.12R
MINOT AFB      FAIR      57  33  39 N9        30.10S
$$

NDZ018>021-031>035-040>046-221800-
...SOUTHWEST NORTH DAKOTA...

CITY           SKY/WX    TMP DP  RH WIND       PRES   REMARKS
BISMARCK       FAIR      59  38  45 SW13G23   30.15F
DICKINSON      FAIR      60  23  24 CALM      30.12S
GARRISON         N/A     53  38  56 MISG      30.13S
HETTINGER      FAIR      58  38  47 N5        30.14F
$$

NDZ004>008-012>016-024-026-027-054-221800-
...NORTHEAST NORTH DAKOTA...

CITY           SKY/WX    TMP DP  RH WIND       PRES   REMARKS
GRAND FORKS    FAIR      54  41  61 SW21      30.20F
GRAND FORKS AF FAIR      57  40  53 SW16      30.19F
DEVILS LAKE    FAIR      54  37  52 SW17      30.15F
$$

NDZ022-023-025-028>030-036>039-047>053-221800-
...SOUTHEAST NORTH DAKOTA...

CITY           SKY/WX    TMP DP  RH WIND       PRES   REMARKS
JAMESTOWN      FAIR      58  36  43 SW21G26   30.19F
FARGO          FAIR      57  39  51 S14       30.24S
WAHPETON       FAIR      55  37  50 S16       30.26F
$$




USA.gov is the U.S. government's official web portal to all federal, state and local government web resources and services.